LSW Netz GmbH & Co. KG;
Summenlast der nicht leistungsgemessenen Kunden (� 23c Abs. 3 Nr. 3 EnWG);
;
Arbeit [kWh];608.486.418
Pmaximum [kW];132.954
Zeitpunkt;14.12.2022 18:30
;
Datum Zeit;Summe [kW]
01.01.2022 00:15;59.195
01.01.2022 00:30;58.407
01.01.2022 00:45;56.189
01.01.2022 01:00;54.329
01.01.2022 01:15;54.695
01.01.2022 01:30;54.047
01.01.2022 01:45;52.610
01.01.2022 02:00;49.713
01.01.2022 02:15;48.119
01.01.2022 02:30;47.457
01.01.2022 02:45;46.955
01.01.2022 03:00;45.564
01.01.2022 03:15;45.065
01.01.2022 03:30;43.678
01.01.2022 03:45;41.948
01.01.2022 04:00;41.184
01.01.2022 04:15;41.217
01.01.2022 04:30;40.711
01.01.2022 04:45;40.967
01.01.2022 05:00;40.010
01.01.2022 05:15;40.594
01.01.2022 05:30;39.199
01.01.2022 05:45;38.863
01.01.2022 06:00;37.527
01.01.2022 06:15;36.664
01.01.2022 06:30;36.815
01.01.2022 06:45;37.957
01.01.2022 07:00;38.950
01.01.2022 07:15;41.531
01.01.2022 07:30;42.978
01.01.2022 07:45;44.815
01.01.2022 08:00;45.807
01.01.2022 08:15;46.765
01.01.2022 08:30;48.736
01.01.2022 08:45;52.395
01.01.2022 09:00;55.725
01.01.2022 09:15;58.424
01.01.2022 09:30;60.591
01.01.2022 09:45;64.211
01.01.2022 10:00;66.144
01.01.2022 10:15;68.666
01.01.2022 10:30;72.080
01.01.2022 10:45;74.620
01.01.2022 11:00;78.167
01.01.2022 11:15;81.718
01.01.2022 11:30;85.304
01.01.2022 11:45;87.806
01.01.2022 12:00;88.563
01.01.2022 12:15;89.512
01.01.2022 12:30;90.463
01.01.2022 12:45;90.819
01.01.2022 13:00;90.029
01.01.2022 13:15;89.338
01.01.2022 13:30;88.353
01.01.2022 13:45;87.845
01.01.2022 14:00;87.575
01.01.2022 14:15;87.888
01.01.2022 14:30;86.912
01.01.2022 14:45;86.517
01.01.2022 15:00;87.034
01.01.2022 15:15;87.183
01.01.2022 15:30;86.316
01.01.2022 15:45;85.657
01.01.2022 16:00;86.213
01.01.2022 16:15;87.702
01.01.2022 16:30;90.152
01.01.2022 16:45;94.530
01.01.2022 17:00;97.684
01.01.2022 17:15;99.986
01.01.2022 17:30;101.304
01.01.2022 17:45;101.846
01.01.2022 18:00;101.743
01.01.2022 18:15;100.507
01.01.2022 18:30;100.916
01.01.2022 18:45;100.450
01.01.2022 19:00;99.924
01.01.2022 19:15;98.516
01.01.2022 19:30;97.940
01.01.2022 19:45;96.059
01.01.2022 20:00;94.432
01.01.2022 20:15;92.385
01.01.2022 20:30;89.858
01.01.2022 20:45;86.558
01.01.2022 21:00;83.649
01.01.2022 21:15;85.035
01.01.2022 21:30;83.630
01.01.2022 21:45;83.469
01.01.2022 22:00;83.158
01.01.2022 22:15;86.909
01.01.2022 22:30;83.238
01.01.2022 22:45;79.571
01.01.2022 23:00;75.817
01.01.2022 23:15;71.067
01.01.2022 23:30;67.456
01.01.2022 23:45;65.286
02.01.2022 00:00;62.464
02.01.2022 00:15;58.550
02.01.2022 00:30;55.016
02.01.2022 00:45;52.292
02.01.2022 01:00;49.439
02.01.2022 01:15;49.209
02.01.2022 01:30;47.002
02.01.2022 01:45;47.195
02.01.2022 02:00;48.148
02.01.2022 02:15;46.400
02.01.2022 02:30;46.011
02.01.2022 02:45;44.600
02.01.2022 03:00;47.178
02.01.2022 03:15;43.735
02.01.2022 03:30;42.783
02.01.2022 03:45;42.454
02.01.2022 04:00;43.123
02.01.2022 04:15;45.788
02.01.2022 04:30;45.790
02.01.2022 04:45;45.721
02.01.2022 05:00;45.490
02.01.2022 05:15;43.155
02.01.2022 05:30;44.962
02.01.2022 05:45;44.189
02.01.2022 06:00;44.772
02.01.2022 06:15;44.142
02.01.2022 06:30;43.619
02.01.2022 06:45;44.078
02.01.2022 07:00;43.801
02.01.2022 07:15;45.396
02.01.2022 07:30;46.847
02.01.2022 07:45;45.184
02.01.2022 08:00;47.037
02.01.2022 08:15;51.345
02.01.2022 08:30;53.237
02.01.2022 08:45;55.298
02.01.2022 09:00;58.916
02.01.2022 09:15;63.040
02.01.2022 09:30;67.174
02.01.2022 09:45;69.405
02.01.2022 10:00;72.766
02.01.2022 10:15;76.243
02.01.2022 10:30;81.239
02.01.2022 10:45;84.224
02.01.2022 11:00;85.323
02.01.2022 11:15;87.358
02.01.2022 11:30;89.306
02.01.2022 11:45;91.388
02.01.2022 12:00;91.365
02.01.2022 12:15;91.301
02.01.2022 12:30;91.936
02.01.2022 12:45;91.185
02.01.2022 13:00;89.433
02.01.2022 13:15;88.966
02.01.2022 13:30;87.061
02.01.2022 13:45;86.648
02.01.2022 14:00;86.394
02.01.2022 14:15;83.013
02.01.2022 14:30;81.320
02.01.2022 14:45;79.241
02.01.2022 15:00;80.170
02.01.2022 15:15;79.861
02.01.2022 15:30;81.426
02.01.2022 15:45;82.834
02.01.2022 16:00;83.035
02.01.2022 16:15;84.383
02.01.2022 16:30;85.300
02.01.2022 16:45;87.405
02.01.2022 17:00;90.266
02.01.2022 17:15;94.297
02.01.2022 17:30;93.669
02.01.2022 17:45;95.263
02.01.2022 18:00;96.182
02.01.2022 18:15;98.489
02.01.2022 18:30;98.159
02.01.2022 18:45;97.116
02.01.2022 19:00;96.907
02.01.2022 19:15;94.783
02.01.2022 19:30;94.697
02.01.2022 19:45;93.658
02.01.2022 20:00;91.138
02.01.2022 20:15;90.304
02.01.2022 20:30;87.263
02.01.2022 20:45;85.680
02.01.2022 21:00;82.292
02.01.2022 21:15;84.754
02.01.2022 21:30;81.473
02.01.2022 21:45;78.831
02.01.2022 22:00;78.816
02.01.2022 22:15;83.451
02.01.2022 22:30;82.271
02.01.2022 22:45;80.225
02.01.2022 23:00;76.638
02.01.2022 23:15;72.712
02.01.2022 23:30;68.328
02.01.2022 23:45;63.551
03.01.2022 00:00;58.105
03.01.2022 00:15;51.711
03.01.2022 00:30;45.778
03.01.2022 00:45;48.025
03.01.2022 01:00;48.283
03.01.2022 01:15;46.661
03.01.2022 01:30;44.459
03.01.2022 01:45;41.491
03.01.2022 02:00;39.299
03.01.2022 02:15;37.976
03.01.2022 02:30;35.744
03.01.2022 02:45;35.224
03.01.2022 03:00;34.894
03.01.2022 03:15;35.539
03.01.2022 03:30;36.022
03.01.2022 03:45;36.309
03.01.2022 04:00;37.091
03.01.2022 04:15;37.337
03.01.2022 04:30;37.968
03.01.2022 04:45;39.282
03.01.2022 05:00;40.215
03.01.2022 05:15;41.828
03.01.2022 05:30;43.399
03.01.2022 05:45;45.122
03.01.2022 06:00;43.531
03.01.2022 06:15;46.491
03.01.2022 06:30;45.978
03.01.2022 06:45;47.509
03.01.2022 07:00;49.877
03.01.2022 07:15;53.709
03.01.2022 07:30;56.503
03.01.2022 07:45;60.182
03.01.2022 08:00;61.755
03.01.2022 08:15;62.603
03.01.2022 08:30;63.443
03.01.2022 08:45;65.317
03.01.2022 09:00;67.077
03.01.2022 09:15;68.160
03.01.2022 09:30;69.796
03.01.2022 09:45;71.572
03.01.2022 10:00;73.130
03.01.2022 10:15;74.552
03.01.2022 10:30;75.331
03.01.2022 10:45;75.427
03.01.2022 11:00;76.529
03.01.2022 11:15;79.041
03.01.2022 11:30;80.632
03.01.2022 11:45;83.899
03.01.2022 12:00;84.639
03.01.2022 12:15;83.199
03.01.2022 12:30;81.622
03.01.2022 12:45;82.375
03.01.2022 13:00;80.390
03.01.2022 13:15;80.851
03.01.2022 13:30;82.218
03.01.2022 13:45;81.550
03.01.2022 14:00;81.384
03.01.2022 14:15;80.405
03.01.2022 14:30;79.282
03.01.2022 14:45;78.439
03.01.2022 15:00;79.076
03.01.2022 15:15;79.268
03.01.2022 15:30;77.271
03.01.2022 15:45;76.573
03.01.2022 16:00;78.790
03.01.2022 16:15;81.988
03.01.2022 16:30;85.907
03.01.2022 16:45;90.256
03.01.2022 17:00;97.581
03.01.2022 17:15;99.420
03.01.2022 17:30;103.042
03.01.2022 17:45;105.447
03.01.2022 18:00;107.697
03.01.2022 18:15;107.195
03.01.2022 18:30;105.242
03.01.2022 18:45;102.823
03.01.2022 19:00;102.100
03.01.2022 19:15;100.932
03.01.2022 19:30;100.174
03.01.2022 19:45;99.334
03.01.2022 20:00;99.597
03.01.2022 20:15;96.606
03.01.2022 20:30;92.766
03.01.2022 20:45;89.062
03.01.2022 21:00;84.768
03.01.2022 21:15;87.525
03.01.2022 21:30;85.763
03.01.2022 21:45;82.649
03.01.2022 22:00;82.425
03.01.2022 22:15;85.712
03.01.2022 22:30;82.265
03.01.2022 22:45;78.898
03.01.2022 23:00;75.440
03.01.2022 23:15;70.788
03.01.2022 23:30;67.264
03.01.2022 23:45;64.646
04.01.2022 00:00;61.656
04.01.2022 00:15;57.624
04.01.2022 00:30;54.595
04.01.2022 00:45;53.269
04.01.2022 01:00;50.993
04.01.2022 01:15;49.895
04.01.2022 01:30;48.515
04.01.2022 01:45;47.005
04.01.2022 02:00;45.780
04.01.2022 02:15;45.316
04.01.2022 02:30;44.212
04.01.2022 02:45;43.921
04.01.2022 03:00;43.952
04.01.2022 03:15;44.218
04.01.2022 03:30;44.391
04.01.2022 03:45;44.902
04.01.2022 04:00;45.574
04.01.2022 04:15;46.080
04.01.2022 04:30;46.484
04.01.2022 04:45;46.429
04.01.2022 05:00;47.080
04.01.2022 05:15;48.538
04.01.2022 05:30;48.811
04.01.2022 05:45;51.129
04.01.2022 06:00;53.334
04.01.2022 06:15;54.264
04.01.2022 06:30;56.779
04.01.2022 06:45;59.798
04.01.2022 07:00;61.765
04.01.2022 07:15;65.465
04.01.2022 07:30;68.400
04.01.2022 07:45;71.070
04.01.2022 08:00;73.954
04.01.2022 08:15;76.128
04.01.2022 08:30;76.496
04.01.2022 08:45;77.379
04.01.2022 09:00;80.451
04.01.2022 09:15;82.985
04.01.2022 09:30;83.946
04.01.2022 09:45;84.661
04.01.2022 10:00;85.441
04.01.2022 10:15;86.757
04.01.2022 10:30;89.179
04.01.2022 10:45;88.968
04.01.2022 11:00;89.614
04.01.2022 11:15;91.437
04.01.2022 11:30;93.303
04.01.2022 11:45;95.887
04.01.2022 12:00;97.906
04.01.2022 12:15;98.522
04.01.2022 12:30;98.599
04.01.2022 12:45;98.431
04.01.2022 13:00;96.184
04.01.2022 13:15;94.086
04.01.2022 13:30;92.519
04.01.2022 13:45;91.076
04.01.2022 14:00;89.249
04.01.2022 14:15;88.713
04.01.2022 14:30;87.694
04.01.2022 14:45;86.919
04.01.2022 15:00;87.091
04.01.2022 15:15;87.620
04.01.2022 15:30;86.202
04.01.2022 15:45;89.980
04.01.2022 16:00;91.593
04.01.2022 16:15;94.352
04.01.2022 16:30;99.532
04.01.2022 16:45;103.954
04.01.2022 17:00;106.622
04.01.2022 17:15;110.176
04.01.2022 17:30;111.966
04.01.2022 17:45;113.639
04.01.2022 18:00;115.432
04.01.2022 18:15;115.531
04.01.2022 18:30;115.624
04.01.2022 18:45;115.045
04.01.2022 19:00;115.188
04.01.2022 19:15;114.153
04.01.2022 19:30;111.852
04.01.2022 19:45;108.404
04.01.2022 20:00;105.504
04.01.2022 20:15;103.164
04.01.2022 20:30;99.611
04.01.2022 20:45;97.465
04.01.2022 21:00;93.854
04.01.2022 21:15;97.343
04.01.2022 21:30;94.324
04.01.2022 21:45;91.932
04.01.2022 22:00;89.908
04.01.2022 22:15;92.970
04.01.2022 22:30;90.279
04.01.2022 22:45;86.161
04.01.2022 23:00;82.660
04.01.2022 23:15;78.423
04.01.2022 23:30;74.823
04.01.2022 23:45;71.424
05.01.2022 00:00;67.884
05.01.2022 00:15;63.797
05.01.2022 00:30;60.793
05.01.2022 00:45;57.839
05.01.2022 01:00;55.319
05.01.2022 01:15;54.173
05.01.2022 01:30;52.068
05.01.2022 01:45;50.515
05.01.2022 02:00;49.302
05.01.2022 02:15;47.936
05.01.2022 02:30;46.867
05.01.2022 02:45;46.224
05.01.2022 03:00;45.753
05.01.2022 03:15;46.076
05.01.2022 03:30;45.478
05.01.2022 03:45;45.673
05.01.2022 04:00;44.864
05.01.2022 04:15;44.605
05.01.2022 04:30;45.314
05.01.2022 04:45;45.680
05.01.2022 05:00;46.933
05.01.2022 05:15;47.535
05.01.2022 05:30;47.063
05.01.2022 05:45;48.084
05.01.2022 06:00;49.103
05.01.2022 06:15;49.115
05.01.2022 06:30;50.982
05.01.2022 06:45;53.091
05.01.2022 07:00;55.785
05.01.2022 07:15;58.837
05.01.2022 07:30;61.853
05.01.2022 07:45;64.671
05.01.2022 08:00;67.206
05.01.2022 08:15;68.291
05.01.2022 08:30;69.265
05.01.2022 08:45;70.087
05.01.2022 09:00;72.211
05.01.2022 09:15;72.125
05.01.2022 09:30;72.481
05.01.2022 09:45;72.708
05.01.2022 10:00;72.528
05.01.2022 10:15;73.167
05.01.2022 10:30;72.291
05.01.2022 10:45;73.455
05.01.2022 11:00;73.860
05.01.2022 11:15;75.658
05.01.2022 11:30;80.276
05.01.2022 11:45;84.513
05.01.2022 12:00;86.137
05.01.2022 12:15;88.142
05.01.2022 12:30;90.172
05.01.2022 12:45;90.062
05.01.2022 13:00;88.919
05.01.2022 13:15;87.698
05.01.2022 13:30;86.871
05.01.2022 13:45;85.731
05.01.2022 14:00;84.635
05.01.2022 14:15;84.011
05.01.2022 14:30;83.589
05.01.2022 14:45;83.734
05.01.2022 15:00;83.653
05.01.2022 15:15;83.152
05.01.2022 15:30;82.902
05.01.2022 15:45;84.343
05.01.2022 16:00;83.912
05.01.2022 16:15;87.105
05.01.2022 16:30;91.294
05.01.2022 16:45;96.425
05.01.2022 17:00;100.873
05.01.2022 17:15;102.703
05.01.2022 17:30;104.520
05.01.2022 17:45;105.856
05.01.2022 18:00;107.306
05.01.2022 18:15;107.601
05.01.2022 18:30;108.309
05.01.2022 18:45;108.686
05.01.2022 19:00;105.274
05.01.2022 19:15;103.402
05.01.2022 19:30;101.709
05.01.2022 19:45;99.506
05.01.2022 20:00;97.726
05.01.2022 20:15;94.413
05.01.2022 20:30;90.888
05.01.2022 20:45;87.370
05.01.2022 21:00;84.100
05.01.2022 21:15;87.202
05.01.2022 21:30;84.647
05.01.2022 21:45;82.425
05.01.2022 22:00;80.076
05.01.2022 22:15;83.514
05.01.2022 22:30;80.822
05.01.2022 22:45;78.244
05.01.2022 23:00;75.711
05.01.2022 23:15;73.044
05.01.2022 23:30;70.504
05.01.2022 23:45;66.211
06.01.2022 00:00;62.863
06.01.2022 00:15;59.770
06.01.2022 00:30;57.205
06.01.2022 00:45;54.972
06.01.2022 01:00;53.853
06.01.2022 01:15;52.425
06.01.2022 01:30;52.477
06.01.2022 01:45;50.023
06.01.2022 02:00;49.390
06.01.2022 02:15;50.200
06.01.2022 02:30;49.749
06.01.2022 02:45;50.547
06.01.2022 03:00;49.865
06.01.2022 03:15;50.215
06.01.2022 03:30;49.956
06.01.2022 03:45;51.367
06.01.2022 04:00;52.713
06.01.2022 04:15;54.177
06.01.2022 04:30;54.989
06.01.2022 04:45;55.784
06.01.2022 05:00;55.896
06.01.2022 05:15;56.838
06.01.2022 05:30;57.427
06.01.2022 05:45;57.815
06.01.2022 06:00;59.018
06.01.2022 06:15;59.734
06.01.2022 06:30;61.712
06.01.2022 06:45;63.524
06.01.2022 07:00;65.412
06.01.2022 07:15;69.052
06.01.2022 07:30;72.948
06.01.2022 07:45;75.089
06.01.2022 08:00;78.172
06.01.2022 08:15;80.409
06.01.2022 08:30;83.439
06.01.2022 08:45;86.518
06.01.2022 09:00;88.229
06.01.2022 09:15;89.139
06.01.2022 09:30;89.415
06.01.2022 09:45;89.295
06.01.2022 10:00;90.152
06.01.2022 10:15;90.205
06.01.2022 10:30;89.510
06.01.2022 10:45;90.729
06.01.2022 11:00;92.318
06.01.2022 11:15;93.229
06.01.2022 11:30;94.080
06.01.2022 11:45;95.348
06.01.2022 12:00;97.101
06.01.2022 12:15;98.344
06.01.2022 12:30;99.192
06.01.2022 12:45;96.966
06.01.2022 13:00;96.555
06.01.2022 13:15;95.162
06.01.2022 13:30;93.718
06.01.2022 13:45;91.748
06.01.2022 14:00;90.277
06.01.2022 14:15;90.584
06.01.2022 14:30;89.912
06.01.2022 14:45;89.413
06.01.2022 15:00;89.495
06.01.2022 15:15;90.547
06.01.2022 15:30;90.175
06.01.2022 15:45;90.763
06.01.2022 16:00;92.618
06.01.2022 16:15;94.894
06.01.2022 16:30;96.706
06.01.2022 16:45;100.143
06.01.2022 17:00;106.176
06.01.2022 17:15;110.994
06.01.2022 17:30;114.655
06.01.2022 17:45;117.597
06.01.2022 18:00;119.295
06.01.2022 18:15;118.591
06.01.2022 18:30;118.959
06.01.2022 18:45;118.034
06.01.2022 19:00;114.519
06.01.2022 19:15;112.853
06.01.2022 19:30;110.434
06.01.2022 19:45;107.884
06.01.2022 20:00;105.373
06.01.2022 20:15;103.569
06.01.2022 20:30;99.787
06.01.2022 20:45;95.848
06.01.2022 21:00;93.259
06.01.2022 21:15;96.049
06.01.2022 21:30;92.943
06.01.2022 21:45;90.523
06.01.2022 22:00;88.833
06.01.2022 22:15;91.863
06.01.2022 22:30;89.648
06.01.2022 22:45;85.266
06.01.2022 23:00;81.692
06.01.2022 23:15;77.629
06.01.2022 23:30;73.655
06.01.2022 23:45;70.272
07.01.2022 00:00;67.553
07.01.2022 00:15;65.529
07.01.2022 00:30;61.045
07.01.2022 00:45;57.618
07.01.2022 01:00;55.014
07.01.2022 01:15;53.629
07.01.2022 01:30;52.603
07.01.2022 01:45;50.979
07.01.2022 02:00;49.711
07.01.2022 02:15;49.680
07.01.2022 02:30;48.841
07.01.2022 02:45;48.436
07.01.2022 03:00;47.986
07.01.2022 03:15;46.945
07.01.2022 03:30;46.289
07.01.2022 03:45;46.137
07.01.2022 04:00;46.446
07.01.2022 04:15;46.994
07.01.2022 04:30;47.317
07.01.2022 04:45;48.161
07.01.2022 05:00;49.419
07.01.2022 05:15;50.714
07.01.2022 05:30;50.678
07.01.2022 05:45;52.982
07.01.2022 06:00;55.313
07.01.2022 06:15;56.829
07.01.2022 06:30;58.463
07.01.2022 06:45;60.674
07.01.2022 07:00;63.864
07.01.2022 07:15;67.774
07.01.2022 07:30;71.604
07.01.2022 07:45;73.800
07.01.2022 08:00;76.834
07.01.2022 08:15;80.017
07.01.2022 08:30;79.521
07.01.2022 08:45;81.378
07.01.2022 09:00;83.132
07.01.2022 09:15;85.058
07.01.2022 09:30;86.689
07.01.2022 09:45;87.533
07.01.2022 10:00;89.375
07.01.2022 10:15;90.768
07.01.2022 10:30;92.628
07.01.2022 10:45;93.185
07.01.2022 11:00;94.723
07.01.2022 11:15;95.689
07.01.2022 11:30;97.936
07.01.2022 11:45;100.255
07.01.2022 12:00;101.707
07.01.2022 12:15;101.558
07.01.2022 12:30;100.832
07.01.2022 12:45;100.933
07.01.2022 13:00;100.790
07.01.2022 13:15;99.096
07.01.2022 13:30;97.983
07.01.2022 13:45;97.780
07.01.2022 14:00;96.616
07.01.2022 14:15;97.061
07.01.2022 14:30;98.410
07.01.2022 14:45;98.070
07.01.2022 15:00;98.169
07.01.2022 15:15;99.252
07.01.2022 15:30;98.911
07.01.2022 15:45;98.109
07.01.2022 16:00;100.160
07.01.2022 16:15;102.431
07.01.2022 16:30;104.867
07.01.2022 16:45;107.981
07.01.2022 17:00;111.353
07.01.2022 17:15;113.803
07.01.2022 17:30;115.197
07.01.2022 17:45;117.706
07.01.2022 18:00;119.232
07.01.2022 18:15;119.582
07.01.2022 18:30;118.059
07.01.2022 18:45;116.458
07.01.2022 19:00;114.673
07.01.2022 19:15;111.554
07.01.2022 19:30;109.535
07.01.2022 19:45;106.887
07.01.2022 20:00;105.767
07.01.2022 20:15;103.261
07.01.2022 20:30;100.908
07.01.2022 20:45;97.533
07.01.2022 21:00;95.261
07.01.2022 21:15;97.865
07.01.2022 21:30;96.024
07.01.2022 21:45;94.284
07.01.2022 22:00;92.449
07.01.2022 22:15;96.771
07.01.2022 22:30;93.413
07.01.2022 22:45;89.580
07.01.2022 23:00;85.943
07.01.2022 23:15;82.522
07.01.2022 23:30;79.856
07.01.2022 23:45;78.374
08.01.2022 00:00;75.924
08.01.2022 00:15;72.661
08.01.2022 00:30;69.906
08.01.2022 00:45;67.397
08.01.2022 01:00;64.923
08.01.2022 01:15;62.953
08.01.2022 01:30;61.576
08.01.2022 01:45;60.010
08.01.2022 02:00;58.623
08.01.2022 02:15;57.172
08.01.2022 02:30;55.923
08.01.2022 02:45;56.223
08.01.2022 03:00;55.445
08.01.2022 03:15;54.991
08.01.2022 03:30;54.105
08.01.2022 03:45;53.988
08.01.2022 04:00;54.204
08.01.2022 04:15;54.127
08.01.2022 04:30;53.392
08.01.2022 04:45;53.391
08.01.2022 05:00;55.020
08.01.2022 05:15;55.582
08.01.2022 05:30;55.323
08.01.2022 05:45;55.980
08.01.2022 06:00;56.454
08.01.2022 06:15;56.067
08.01.2022 06:30;57.636
08.01.2022 06:45;59.129
08.01.2022 07:00;60.217
08.01.2022 07:15;62.961
08.01.2022 07:30;65.425
08.01.2022 07:45;68.631
08.01.2022 08:00;71.307
08.01.2022 08:15;75.455
08.01.2022 08:30;76.752
08.01.2022 08:45;80.186
08.01.2022 09:00;85.224
08.01.2022 09:15;87.849
08.01.2022 09:30;91.035
08.01.2022 09:45;92.973
08.01.2022 10:00;93.124
08.01.2022 10:15;95.088
08.01.2022 10:30;95.867
08.01.2022 10:45;97.352
08.01.2022 11:00;98.233
08.01.2022 11:15;99.699
08.01.2022 11:30;102.589
08.01.2022 11:45;104.615
08.01.2022 12:00;105.813
08.01.2022 12:15;105.503
08.01.2022 12:30;105.530
08.01.2022 12:45;106.454
08.01.2022 13:00;104.588
08.01.2022 13:15;103.786
08.01.2022 13:30;101.551
08.01.2022 13:45;101.088
08.01.2022 14:00;100.529
08.01.2022 14:15;98.488
08.01.2022 14:30;96.117
08.01.2022 14:45;94.859
08.01.2022 15:00;93.938
08.01.2022 15:15;93.901
08.01.2022 15:30;94.931
08.01.2022 15:45;96.793
08.01.2022 16:00;99.054
08.01.2022 16:15;102.697
08.01.2022 16:30;104.901
08.01.2022 16:45;107.341
08.01.2022 17:00;109.999
08.01.2022 17:15;113.622
08.01.2022 17:30;114.824
08.01.2022 17:45;116.766
08.01.2022 18:00;118.062
08.01.2022 18:15;118.068
08.01.2022 18:30;115.728
08.01.2022 18:45;114.902
08.01.2022 19:00;114.185
08.01.2022 19:15;112.223
08.01.2022 19:30;110.612
08.01.2022 19:45;107.456
08.01.2022 20:00;105.358
08.01.2022 20:15;102.053
08.01.2022 20:30;97.976
08.01.2022 20:45;94.819
08.01.2022 21:00;92.164
08.01.2022 21:15;95.130
08.01.2022 21:30;93.670
08.01.2022 21:45;92.800
08.01.2022 22:00;91.267
08.01.2022 22:15;95.237
08.01.2022 22:30;93.176
08.01.2022 22:45;89.868
08.01.2022 23:00;87.579
08.01.2022 23:15;83.883
08.01.2022 23:30;80.642
08.01.2022 23:45;77.698
09.01.2022 00:00;73.144
09.01.2022 00:15;69.766
09.01.2022 00:30;66.198
09.01.2022 00:45;64.132
09.01.2022 01:00;60.727
09.01.2022 01:15;58.865
09.01.2022 01:30;56.015
09.01.2022 01:45;54.493
09.01.2022 02:00;53.434
09.01.2022 02:15;52.844
09.01.2022 02:30;52.051
09.01.2022 02:45;50.022
09.01.2022 03:00;49.373
09.01.2022 03:15;48.749
09.01.2022 03:30;48.225
09.01.2022 03:45;49.676
09.01.2022 04:00;48.618
09.01.2022 04:15;48.694
09.01.2022 04:30;49.290
09.01.2022 04:45;49.233
09.01.2022 05:00;50.072
09.01.2022 05:15;50.444
09.01.2022 05:30;49.758
09.01.2022 05:45;50.238
09.01.2022 06:00;50.226
09.01.2022 06:15;49.510
09.01.2022 06:30;49.897
09.01.2022 06:45;51.217
09.01.2022 07:00;52.731
09.01.2022 07:15;56.076
09.01.2022 07:30;58.380
09.01.2022 07:45;62.179
09.01.2022 08:00;66.110
09.01.2022 08:15;69.865
09.01.2022 08:30;73.409
09.01.2022 08:45;77.755
09.01.2022 09:00;81.682
09.01.2022 09:15;86.252
09.01.2022 09:30;90.064
09.01.2022 09:45;93.040
09.01.2022 10:00;96.301
09.01.2022 10:15;99.270
09.01.2022 10:30;101.958
09.01.2022 10:45;103.914
09.01.2022 11:00;106.957
09.01.2022 11:15;109.734
09.01.2022 11:30;115.012
09.01.2022 11:45;118.107
09.01.2022 12:00;121.190
09.01.2022 12:15;121.630
09.01.2022 12:30;121.540
09.01.2022 12:45;119.566
09.01.2022 13:00;117.181
09.01.2022 13:15;113.680
09.01.2022 13:30;110.953
09.01.2022 13:45;109.212
09.01.2022 14:00;108.275
09.01.2022 14:15;105.587
09.01.2022 14:30;103.641
09.01.2022 14:45;100.212
09.01.2022 15:00;96.587
09.01.2022 15:15;93.791
09.01.2022 15:30;94.359
09.01.2022 15:45;94.217
09.01.2022 16:00;95.263
09.01.2022 16:15;94.823
09.01.2022 16:30;95.917
09.01.2022 16:45;100.547
09.01.2022 17:00;104.788
09.01.2022 17:15;107.663
09.01.2022 17:30;110.869
09.01.2022 17:45;112.389
09.01.2022 18:00;113.804
09.01.2022 18:15;116.734
09.01.2022 18:30;115.914
09.01.2022 18:45;115.137
09.01.2022 19:00;112.939
09.01.2022 19:15;110.532
09.01.2022 19:30;108.694
09.01.2022 19:45;107.969
09.01.2022 20:00;104.194
09.01.2022 20:15;100.852
09.01.2022 20:30;98.133
09.01.2022 20:45;95.026
09.01.2022 21:00;91.106
09.01.2022 21:15;92.966
09.01.2022 21:30;90.973
09.01.2022 21:45;88.522
09.01.2022 22:00;87.179
09.01.2022 22:15;90.945
09.01.2022 22:30;88.232
09.01.2022 22:45;84.805
09.01.2022 23:00;80.781
09.01.2022 23:15;76.654
09.01.2022 23:30;73.333
09.01.2022 23:45;69.361
10.01.2022 00:00;66.164
10.01.2022 00:15;62.466
10.01.2022 00:30;60.073
10.01.2022 00:45;57.410
10.01.2022 01:00;55.600
10.01.2022 01:15;54.819
10.01.2022 01:30;54.228
10.01.2022 01:45;52.660
10.01.2022 02:00;51.896
10.01.2022 02:15;50.609
10.01.2022 02:30;50.632
10.01.2022 02:45;50.646
10.01.2022 03:00;50.217
10.01.2022 03:15;49.994
10.01.2022 03:30;50.494
10.01.2022 03:45;51.406
10.01.2022 04:00;51.373
10.01.2022 04:15;52.919
10.01.2022 04:30;53.726
10.01.2022 04:45;55.302
10.01.2022 05:00;56.399
10.01.2022 05:15;58.016
10.01.2022 05:30;59.243
10.01.2022 05:45;62.105
10.01.2022 06:00;65.266
10.01.2022 06:15;67.950
10.01.2022 06:30;71.951
10.01.2022 06:45;75.930
10.01.2022 07:00;79.494
10.01.2022 07:15;82.670
10.01.2022 07:30;84.145
10.01.2022 07:45;85.669
10.01.2022 08:00;88.105
10.01.2022 08:15;90.215
10.01.2022 08:30;90.172
10.01.2022 08:45;90.311
10.01.2022 09:00;91.395
10.01.2022 09:15;91.429
10.01.2022 09:30;92.301
10.01.2022 09:45;92.839
10.01.2022 10:00;93.562
10.01.2022 10:15;93.306
10.01.2022 10:30;94.254
10.01.2022 10:45;94.716
10.01.2022 11:00;95.698
10.01.2022 11:15;96.454
10.01.2022 11:30;98.972
10.01.2022 11:45;100.507
10.01.2022 12:00;102.382
10.01.2022 12:15;103.742
10.01.2022 12:30;104.418
10.01.2022 12:45;103.617
10.01.2022 13:00;101.623
10.01.2022 13:15;100.920
10.01.2022 13:30;100.074
10.01.2022 13:45;99.536
10.01.2022 14:00;98.673
10.01.2022 14:15;98.121
10.01.2022 14:30;97.635
10.01.2022 14:45;97.720
10.01.2022 15:00;97.018
10.01.2022 15:15;97.022
10.01.2022 15:30;96.840
10.01.2022 15:45;97.167
10.01.2022 16:00;97.861
10.01.2022 16:15;100.346
10.01.2022 16:30;102.937
10.01.2022 16:45;105.507
10.01.2022 17:00;109.503
10.01.2022 17:15;114.155
10.01.2022 17:30;116.026
10.01.2022 17:45;118.502
10.01.2022 18:00;120.739
10.01.2022 18:15;121.712
10.01.2022 18:30;120.728
10.01.2022 18:45;120.152
10.01.2022 19:00;119.500
10.01.2022 19:15;117.727
10.01.2022 19:30;116.325
10.01.2022 19:45;114.250
10.01.2022 20:00;112.490
10.01.2022 20:15;109.865